CW9927 Weather Reports


time (UTC)temp
F
wind
direction
speed
knots
gust
knots
rain 1hr
in
rain 24hr
in
rain mn
in
humidity
%
barometer
mb
20260507174318 62 0.0 0.0 0.00 0.00 0.00 82 1019.1
20260507173337 61 0.0 0.0 0.00 0.00 0.00 87 1019.3
20260507172315 60 0.0 0.0 0.00 0.00 0.00 87 1019.3
20260507171321 59 0.0 0.0 0.00 0.00 0.00 87 1019.4
20260507170317 59 0.0 0.0 0.00 0.00 0.00 88 1019.5
20260507165317 58 0.0 0.0 0.00 0.00 0.00 90 1019.6
20260507164318 57 0.0 0.0 0.00 0.00 0.00 91 1019.6
20260507163318 56 0.0 0.0 0.00 0.00 0.00 90 1019.6
20260507162317 56 0.0 0.0 0.00 0.00 0.00 91 1019.7
20260507161317 56 0.0 0.0 0.00 0.00 0.00 91 1019.7
20260507160317 56 0.0 0.0 0.00 0.00 0.00 91 1019.7
20260507155317 55 0.0 0.0 0.00 0.00 0.00 92 1019.8
20260507154317 55 0.0 0.0 0.00 0.00 0.00 92 1019.9
20260507153317 55 0.0 0.0 0.00 0.00 0.00 92 1019.9
20260507152338 55 0.0 0.0 0.00 0.00 0.00 92 1020.0
20260507151318 55 0.0 0.0 0.00 0.00 0.00 92 1019.9
20260507150317 54 0.0 0.0 0.00 0.00 0.00 92 1019.9
20260507145318 54 0.0 0.0 0.00 0.00 0.00 92 1020.0
20260507144318 54 0.0 0.0 0.00 0.00 0.00 92 1019.9
20260507143338 54 0.0 0.0 0.00 0.00 0.00 92 1019.9
20260507142318 54 0.0 0.0 0.00 0.00 0.00 92 1019.9
20260507141317 53 0.0 0.0 0.00 0.00 0.00 93 1019.8
20260507140317 53 0.0 0.0 0.00 0.00 0.00 92 1019.7
20260507135317 52 0.0 0.0 0.00 0.00 0.00 92 1019.6
20260507134317 51 0.0 0.0 0.00 0.00 0.00 92 1019.5
20260507133337 51 0.0 0.0 0.00 0.00 0.00 92 1019.5
20260507132317 51 0.0 0.0 0.00 0.00 0.00 91 1019.4
20260507131317 50 0.0 0.0 0.00 0.00 0.00 91 1019.4
20260507130335 50 0.0 0.0 0.00 0.00 0.00 91 1019.3
20260507130218 50 0.0 0.0 0.00 0.00 0.00 91 1019.4
20260507125116 50 0.0 0.0 0.00 0.00 0.00 91 1019.3
20260507124116 49 0.0 0.0 0.00 0.00 0.00 91 1019.3
20260507123116 49 0.0 0.0 0.00 0.00 0.00 91 1019.3
20260507122118 49 0.0 0.0 0.00 0.00 0.00 90 1019.3
20260507121116 49 0.0 0.0 0.00 0.00 0.00 90 1019.3
20260507120116 49 0.0 0.0 0.00 0.00 0.00 90 1019.4
20260507114117 49 0.0 0.0 0.00 0.00 0.00 89 1019.4
20260507113116 49 0.0 0.0 0.00 0.00 0.00 89 1019.3
20260507112138 49 0.0 0.0 0.00 0.00 0.00 89 1019.3
20260507111116 50 0.0 0.0 0.00 0.00 0.00 89 1019.3
20260507110143 50 0.0 0.0 0.00 0.00 0.00 89 1019.3
20260507105120 50 0.0 0.0 0.00 0.00 0.00 89 1019.4
20260507104117 50 0.0 0.0 0.00 0.00 0.00 89 1019.4
20260507103140 50 0.0 0.0 0.00 0.00 0.00 89 1019.4
20260507102116 50 0.0 0.0 0.00 0.00 0.00 89 1019.5
20260507101116 50 0.0 0.0 0.00 0.00 0.00 88 1019.4
20260507100116 51 0.0 0.0 0.00 0.00 0.00 88 1019.4
20260507095116 51 0.0 0.0 0.00 0.00 0.00 88 1019.4
20260507094116 51 0.0 0.0 0.00 0.00 0.00 88 1019.4
20260507093116 51 0.0 0.0 0.00 0.00 0.00 88 1019.5
20260507092116 51 0.0 0.0 0.00 0.00 0.00 87 1019.5
20260507091116 51 0.0 0.0 0.00 0.00 0.00 88 1019.5
20260507090116 52 0.0 0.0 0.00 0.00 0.00 87 1019.6
20260507085116 52 0.0 0.0 0.00 0.00 0.00 87 1019.6
20260507084116 52 0.0 0.0 0.00 0.00 0.00 87 1019.7
20260507083116 52 0.0 0.0 0.00 0.00 0.00 86 1019.7
20260507082116 52 0.0 0.0 0.00 0.00 0.00 86 1019.8
20260507081116 52 0.0 0.0 0.00 0.00 0.00 86 1019.8
20260507080116 53 0.0 0.0 0.00 0.00 0.00 86 1019.8
20260507075116 53 0.0 0.0 0.00 0.00 0.00 86 1019.9
20260507074116 54 0.0 0.0 0.00 0.00 0.00 86 1019.8
20260507073116 54 0.0 0.0 0.00 0.00 0.00 86 1019.8
20260507072116 54 0.0 0.0 0.00 0.00 0.00 86 1019.9
20260507071116 54 0.0 0.0 0.00 0.00 0.00 86 1019.8
20260507065316 54 0.0 0.0 0.00 0.00 0.00 85 1019.8
20260507064316 55 0.0 0.0 0.00 0.00 0.00 85 1019.9
20260507063315 55 0.0 0.0 0.00 0.00 0.00 85 1019.9
20260507062316 55 0.0 0.0 0.00 0.00 0.00 85 1019.9
20260507061316 55 0.0 0.0 0.00 0.00 0.00 84 1019.9
20260507060316 56 0.0 0.0 0.00 0.00 0.00 84 1019.9
20260507055316 56 0.0 0.0 0.00 0.00 0.00 84 1019.8
20260507054316 56 0.0 0.0 0.00 0.00 0.00 83 1019.8
20260507053316 57 0.0 0.0 0.00 0.00 0.00 83 1019.8
20260507052315 57 0.0 0.0 0.00 0.00 0.00 82 1019.7
20260507051339 57 0.0 0.0 0.00 0.00 0.00 81 1019.7
20260507050317 58 0.0 0.0 0.00 0.00 0.00 81 1019.7
20260507045315 58 0.0 0.0 0.00 0.00 0.00 79 1019.7
20260507044315 59 0.0 0.0 0.00 0.00 0.00 79 1019.6
20260507043316 60 0.0 0.0 0.00 0.00 0.00 77 1019.5
20260507042315 60 0.0 0.0 0.00 0.00 0.00 76 1019.3
20260507041316 61 0.0 0.0 0.00 0.00 0.00 74 1019.3
20260507040316 62 0.0 0.0 0.00 0.00 0.00 72 1019.2
20260507035336 62 0.0 0.0 0.00 0.00 0.00 70 1019.1
20260507034316 63 0.0 0.0 0.00 0.00 0.00 69 1019.1
20260507033339 64 0.0 0.0 0.00 0.00 0.00 69 1019.0
20260507032317 64 0.0 0.0 0.00 0.00 0.00 68 1018.8
20260507031316 65 0.0 0.0 0.00 0.00 0.00 68 1018.7
20260507030318 65 0.0 0.0 0.00 0.00 0.00 68 1018.6
20260507025358 66 0.0 0.0 0.00 0.00 0.00 66 1018.5
20260507024318 66 0.0 0.0 0.00 0.00 0.00 65 1018.4
20260507023318 67 0.0 0.0 0.00 0.00 0.00 63 1018.3
20260507022317 68 0.0 0.0 0.00 0.00 0.00 64 1018.2
20260507021317 69 0.0 0.0 0.00 0.00 0.00 62 1018.2
20260507020317 69 0.0 0.0 0.00 0.00 0.00 63 1018.0
20260507015318 68 0.0 0.0 0.00 0.00 0.00 63 1018.0
20260507014318 69 0.0 0.0 0.00 0.00 0.00 62 1018.0
20260507013318 70 0.0 0.0 0.00 0.00 0.00 62 1017.8
20260507012338 71 0.0 0.0 0.00 0.00 0.00 61 1017.6
20260507011318 71 0.0 0.0 0.00 0.00 0.00 60 1017.6
20260507010331 72 0.0 0.9 0.00 0.00 0.00 60 1017.4
20260507010211 72 0.0 0.0 0.00 0.00 0.00 59 1017.4
20260507005418 72 0.0 0.9 0.00 0.00 0.00 58 1017.4
20260507004418 73 0.0 0.9 0.00 0.00 0.00 58 1017.3
20260507003418 73 0.0 1.7 0.00 0.00 0.00 58 1017.2
20260507002418 74 0.0 0.0 0.00 0.00 0.00 58 1017.2
20260507001438 74 0.0 1.7 0.00 0.00 0.00 57 1017.2
20260507000420 75 0.0 0.0 0.00 0.00 0.00 57 1017.1
20260506235437 75 248 1.7 5.2 0.00 0.00 0.00 57 1017.1
20260506234438 75 225 1.7 5.2 0.00 0.00 0.00 57 1017.1
20260506233418 76 270 3.5 7.8 0.00 0.00 0.00 56 1017.1
20260506232438 76 248 2.6 6.1 0.00 0.00 0.00 55 1017.1
20260506231437 77 270 1.7 5.2 0.00 0.00 0.00 55 1017.2
20260506230417 77 270 1.7 5.2 0.00 0.00 0.00 55 1017.2
20260506225437 78 0.0 0.0 0.00 0.00 0.00 53 1017.3
20260506224417 79 0.0 0.0 0.00 0.00 0.00 52 1017.3
20260506223417 80 0.0 0.0 0.00 0.00 0.00 49 1017.4
20260506222417 81 0.0 0.0 0.00 0.00 0.00 48 1017.6
20260506221417 80 0.0 0.0 0.00 0.00 0.00 49 1017.8
20260506220417 80 0.0 0.0 0.00 0.00 0.00 48 1017.9
20260506215417 79 0.0 0.0 0.00 0.00 0.00 48 1018.1
20260506214417 79 0.0 0.0 0.00 0.00 0.00 51 1018.3
20260506213418 79 0.0 0.0 0.00 0.00 0.00 49 1018.4
20260506212417 78 0.0 0.0 0.00 0.00 0.00 51 1018.5
20260506211417 78 0.0 0.0 0.00 0.00 0.00 50 1018.5
20260506210417 77 0.0 0.0 0.00 0.00 0.00 52 1018.5
20260506205438 77 0.0 0.0 0.00 0.00 0.00 53 1018.6
20260506204458 76 0.0 0.0 0.00 0.00 0.00 53 1018.7
20260506203438 76 0.0 0.0 0.00 0.00 0.00 53 1018.8
20260506202438 76 0.0 0.0 0.00 0.00 0.00 54 1018.9
20260506201418 75 0.0 0.0 0.00 0.00 0.00 55 1019.0
20260506200419 74 0.0 0.0 0.00 0.00 0.00 56 1019.1
20260506195419 73 0.0 0.0 0.00 0.00 0.00 57 1019.2
20260506194417 72 0.0 0.0 0.00 0.00 0.00 58 1019.4
20260506193418 73 0.0 0.0 0.00 0.00 0.00 57 1019.5
20260506192439 73 0.0 0.0 0.00 0.00 0.00 59 1019.7
20260506191417 72 0.0 0.0 0.00 0.00 0.00 59 1019.8
20260506190507 71 0.0 0.0 0.00 0.00 0.00 62 1019.9
20260506190248 71 0.0 0.0 0.00 0.00 0.00 62 1019.9
20260506185116 70 0.0 0.0 0.00 0.00 0.00 61 1020.0
20260506184117 70 0.0 0.0 0.00 0.00 0.00 62 1020.2
20260506183116 69 0.0 0.0 0.00 0.00 0.00 65 1020.2
20260506182116 68 0.0 0.0 0.00 0.00 0.00 64 1020.3
20260506181117 68 0.0 0.0 0.00 0.00 0.00 66 1020.3
20260506180116 67 0.0 0.0 0.00 0.00 0.00 67 1020.4